Location: Newark
(9.4667°S, 159.8167°E)
Time: 05:16:00
(UTC+00:00)

Courier 1B Rocket - Pass Details

Date: 21 November 2019
Orbit: 920 x 1202 km, 28.2° (Epoch: 09 December)

Event Time Altitude Azimuth Distance (km) Brightness Sun altitude
Rises 17:03:08 0° 238° (WSW) 3,850 - -24.8°
Exits shadow 17:05:21 - 228° (SW) 3,276 7.5 -24.3°
Reaches altitude 10° 17:07:27 10° 215° (SW) 2,829 7.3 -23.9°
Maximum altitude 17:11:00 14° 183° (S) 2,459 7.4 -23.1°
Drops below altitude 10° 17:14:28 10° 151° (SSE) 2,728 8.1 -22.3°
Sets 17:18:29 0° 127° (SE) 3,625 9.4 -21.4°
